North Vernon, Indiana, United States (47265)
Lat: 39.01N, Lon: 85.62W
Wx Zone: INZ072
Local Info
Past Weather Observations for Wednesday, September 2, 2015

NOTE: This archive is for the closest National Weather Service station to North Vernon. Information may differ from the station used for current weather conditions.

Click here for Long-term Archive

Time Weather Temperature Dewpoint Humidity Pressure Winds Precip Visibility
23:53
Clear
Fog And Mist
70°F / 21°C 66°F / 19°C 88% 30.04 in
(1017 mb)
Calm - 5SM
22:53
Clear
70°F / 21°C 66°F / 19°C 88% 30.04 in
(1017 mb)
Calm - 7SM
21:53
Clear
73°F / 23°C 66°F / 19°C 78% 30.04 in
(1017 mb)
S 3.5 mph
(S 6 kph)
- 9SM
20:53
Clear
73°F / 23°C 68°F / 20°C 83% 30.04 in
(1017 mb)
ESE 3.5 mph
(ESE 6 kph)
- 9SM
19:53
Clear
79°F / 26°C 68°F / 20°C 70% 30.04 in
(1017 mb)
SW 4.6 mph
(SW 7 kph)
- 10SM
18:53
Clear
82°F / 28°C 68°F / 20°C 62% 30.01 in
(1016 mb)
Calm - 10SM
17:53
Clear
88°F / 31°C 66°F / 19°C 49% 30.01 in
(1016 mb)
SSW 8.1 mph
(SSW 13 kph)
- 10SM
16:53
Clear
90°F / 32°C 66°F / 19°C 46% 30.01 in
(1016 mb)
W 8.1 mph
(W 13 kph)
- 10SM
15:53
Partly Cloudy
90°F / 32°C 66°F / 19°C 46% 30.04 in
(1017 mb)
SW 10.4 mph
(SW 17 kph)
- 10SM
14:53
Partly Cloudy
90°F / 32°C 68°F / 20°C 49% 30.04 in
(1017 mb)
SSW 6.9 mph
(SSW 11 kph)
- 10SM
13:53
Partly Cloudy
90°F / 32°C 68°F / 20°C 49% 30.06 in
(1018 mb)
SSW 10.4 mph
(SSW 17 kph)
- 10SM
12:53
Mostly Cloudy
90°F / 32°C 68°F / 20°C 49% 30.09 in
(1019 mb)
Variable 6.9 mph
(Variable 11 kph)
- 10SM
11:53
Partly Cloudy
88°F / 31°C 70°F / 21°C 55% 30.12 in
(1020 mb)
Variable 4.6 mph
(Variable 7 kph)
- 10SM
10:53
Clear
86°F / 30°C 72°F / 22°C 62% 30.12 in
(1020 mb)
SW 5.8 mph
(SW 9 kph)
- 10SM
09:53
Clear
82°F / 28°C 70°F / 21°C 66% 30.15 in
(1021 mb)
SSW 5.8 mph
(SSW 9 kph)
- 9SM
08:53
Clear
77°F / 25°C 70°F / 21°C 79% 30.15 in
(1021 mb)
SW 4.6 mph
(SW 7 kph)
- 7SM
07:53
Clear
Fog And Mist
73°F / 23°C 70°F / 21°C 89% 30.15 in
(1021 mb)
S 4.6 mph
(S 7 kph)
- 3SM
07:39
Clear
Fog And Mist
73°F / 23°C 70°F / 21°C 89% 30.15 in
(1021 mb)
S 3.5 mph
(S 6 kph)
- 3SM
07:23
Clear
Fog And Mist
70°F / 21°C 66°F / 19°C 88% 30.12 in
(1020 mb)
Calm - 2 1/2SM
07:03
Partly Cloudy
Fog And Mist
68°F / 20°C 64°F / 18°C 88% 30.12 in
(1020 mb)
Calm - 1 3/4SM
06:53
Obscured
Fog
66°F / 19°C 64°F / 18°C 94% 30.12 in
(1020 mb)
S 3.5 mph
(S 6 kph)
- 1/2SM
06:29
Obscured
Fog
66°F / 19°C 63°F / 17°C 88% 30.12 in
(1020 mb)
Calm - 1/2SM
06:22
Obscured
Fog And Mist
66°F / 19°C 63°F / 17°C 88% 30.12 in
(1020 mb)
Calm - 1SM
06:20
Partly Cloudy
Fog And Mist
66°F / 19°C 63°F / 17°C 88% 30.12 in
(1020 mb)
Calm - 2 1/2SM
06:16
Mostly Cloudy
Fog And Mist
64°F / 18°C 63°F / 17°C 94% 30.12 in
(1020 mb)
Calm - 3SM
06:10
Overcast
Fog And Mist
66°F / 19°C 63°F / 17°C 88% 30.12 in
(1020 mb)
S 3.5 mph
(S 6 kph)
- 1 3/4SM
06:01
Obscured
Fog
64°F / 18°C 63°F / 17°C 94% 30.12 in
(1020 mb)
Calm - 1/2SM
05:53
Mostly Cloudy
Fog And Mist
64°F / 18°C 63°F / 17°C 94% 30.12 in
(1020 mb)
Calm - 1 1/4SM
05:46
Partly Cloudy
Fog And Mist
64°F / 18°C 63°F / 17°C 94% 30.12 in
(1020 mb)
Calm - 2 1/2SM
05:35
Clear
Fog And Mist
66°F / 19°C 63°F / 17°C 88% 30.12 in
(1020 mb)
Calm - 2SM
05:12
Clear
Fog And Mist
66°F / 19°C 63°F / 17°C 88% 30.09 in
(1019 mb)
Calm - 1 3/4SM
04:53
Clear
Fog And Mist
66°F / 19°C 63°F / 17°C 88% 30.09 in
(1019 mb)
Calm - 3SM
04:32
Clear
Fog And Mist
66°F / 19°C 64°F / 18°C 94% 30.09 in
(1019 mb)
SSE 3.5 mph
(SSE 6 kph)
- 3SM
04:25
Clear
Fog And Mist
66°F / 19°C 64°F / 18°C 94% 30.09 in
(1019 mb)
SSE 3.5 mph
(SSE 6 kph)
- 2 1/2SM
04:12
Clear
Fog And Mist
66°F / 19°C 64°F / 18°C 94% 30.09 in
(1019 mb)
SSE 4.6 mph
(SSE 7 kph)
- 1 1/4SM
04:01
Clear
Fog And Mist
66°F / 19°C 64°F / 18°C 94% 30.09 in
(1019 mb)
SSE 3.5 mph
(SSE 6 kph)
- 2SM
03:53
Clear
Fog And Mist
66°F / 19°C 64°F / 18°C 94% 30.09 in
(1019 mb)
SSE 3.5 mph
(SSE 6 kph)
- 1 1/2SM
03:46
Clear
Fog And Mist
66°F / 19°C 64°F / 18°C 94% 30.09 in
(1019 mb)
Calm - 1 1/4SM
03:35
Clear
Fog And Mist
66°F / 19°C 64°F / 18°C 94% 30.09 in
(1019 mb)
Calm - 2SM
03:21
Partly Cloudy
Fog And Mist
66°F / 19°C 64°F / 18°C 94% 30.09 in
(1019 mb)
SSE 3.5 mph
(SSE 6 kph)
- 3SM
03:05
Partly Cloudy
Fog And Mist
66°F / 19°C 64°F / 18°C 94% 30.09 in
(1019 mb)
Calm - 1 1/2SM
02:57
Partly Cloudy
Fog And Mist
66°F / 19°C 64°F / 18°C 94% 30.09 in
(1019 mb)
Calm - 2SM
02:53
Clear
Fog And Mist
66°F / 19°C 64°F / 18°C 94% 30.09 in
(1019 mb)
Calm - 4SM
02:48
Clear
Fog And Mist
66°F / 19°C 64°F / 18°C 94% 30.09 in
(1019 mb)
Calm - 4SM
02:37
Clear
Fog And Mist
68°F / 20°C 64°F / 18°C 88% 30.09 in
(1019 mb)
SSE 3.5 mph
(SSE 6 kph)
- 2SM
01:59
Clear
Fog And Mist
66°F / 19°C 64°F / 18°C 94% 30.09 in
(1019 mb)
SSE 3.5 mph
(SSE 6 kph)
- 3SM
01:53
Partly Cloudy
Fog And Mist
66°F / 19°C 64°F / 18°C 94% 30.09 in
(1019 mb)
SSE 3.5 mph
(SSE 6 kph)
- 1 3/4SM
01:49
Partly Cloudy
Fog And Mist
68°F / 20°C 64°F / 18°C 88% 30.09 in
(1019 mb)
SE 3.5 mph
(SE 6 kph)
- 1 3/4SM
01:43
Clear
Fog And Mist
68°F / 20°C 64°F / 18°C 88% 30.09 in
(1019 mb)
SSE 3.5 mph
(SSE 6 kph)
- 2SM
01:37
Obscured
Fog And Mist
68°F / 20°C 64°F / 18°C 88% 30.09 in
(1019 mb)
SSE 3.5 mph
(SSE 6 kph)
- 3/4SM
01:25
Clear
Fog And Mist
68°F / 20°C 64°F / 18°C 88% 30.09 in
(1019 mb)
Calm - 1 3/4SM
00:53
Clear
Fog And Mist
68°F / 20°C 64°F / 18°C 88% 30.12 in
(1020 mb)
SE 3.5 mph
(SE 6 kph)
- 4SM
Time Weather Temperature Dewpoint Humidity Pressure Winds Precip Visibility


Weather for websites

WeatherForYou.com, LLC is not responsible for any damages or problems caused by this service. Current weather conditions are obtained from the closest station including government and personal stations which may have varying degrees of accuracy. Weather forecasts are derived from the NOAA NDFD. Like all things, this site belongs to Jesus Christ... He just trusts us to maintain it. If you have any questions or comments email webmaster@weatherforyou.com

Copyright © 2015, WeatherForYou.com LLC. All rights reserved.